Tracking 17855 objects as of 25-September-2016
HD Live streaming from Space Station
objects crossing your sky now

MERIDIAN 3

Track MERIDIAN 3 now!
MERIDIAN 3 is classified as:


NORAD ID: 37212
Int'l Code: 2010-058A
Perigee: 1,981.3 km
Apogee: 38,390.9 km
Inclination: 63.0 °
Period: 717.8 minutes
Semi major axis: 26557 km
RCS: 24.3984 m2 (large)
Launch date: November 2, 2010
Source: Commonwealth of Independent States (former USSR) (CIS)
Launch site: PLESETSK MISSILE AND SPACE COMPLEX (PKMTR)

MERIDIAN 3 is a Russian military communications satellite.
Your satellite tracking list
Your tracking list is empty





NASA's NSSDC Master Catalog

Two Line Element Set (TLE):
1 37212U 10058A   16268.06514314  .00000046  00000-0  10000-3 0  9990
2 37212  63.0315 105.5890 6854953 274.1790 351.3060  2.00603174 43179
Source of the keplerian elements: AFSPC

N2YO: 651